[[{"header":{"parameterUnit":"m.s-1","parameterCategory":1,"la1":30.2991,"la2":30.254,"lo1":-89.0895,"lo2":-89.0444,"dy":0.0017,"dx":0.0017,"nx":28,"ny":28,"refTime":"2025-02-24T03:00:00:Z","depth":0,"parameterNumber":2,"parameterNumberName":"U-component_of_WINDS"},"data":[0,0,0,0,0,0,0,0,0,0,0,0,0,0,0,0,0,0,0,0,0,0,0,0,0,0,0,0,0,0,0,0,0,0,0,0,0,0,0,0,0,0,0,0,0,0,0,0,0,0,0,0,0,0,0,0,0,0,-3.5717,-3.5717,0,-3.5693,-3.5693,-3.5692,-3.5535,-3.5531,-3.5527,-3.5523,-3.5505,-3.5508,-3.5511,0,0,0,0,0,0,0,0,0,0,0,0,0,-3.5632,-3.5634,-3.5717,-3.5717,-3.5717,-3.5693,-3.5693,-3.5692,-3.5535,-3.5531,-3.5526,-3.5521,-3.5504,-3.5507,-3.5511,0,0,0,0,0,0,0,0,0,0,0,0,0,-3.5645,-3.5635,-3.5717,-3.5635,-3.5628,-3.5693,-3.5693,-3.5692,-3.5536,-3.553,-3.5525,-3.5519,-3.5503,-3.5507,-3.5512,-3.5656,0,0,-3.5526,-3.5528,0,0,0,0,0,0,0,0,-3.5644,-3.5648,-3.5648,-3.5641,-3.5633,-3.5611,-3.5655,-3.568,-3.5538,-3.5571,-3.5523,-3.5516,-3.5545,-3.5546,-3.5554,-3.5655,-3.5654,-3.5526,-3.5529,-3.5531,-3.5532,0,0,0,0,0,0,0,-3.5643,-3.5648,-3.5708,-3.5648,-3.5639,-3.5601,-3.5596,-3.566,-3.5591,-3.5568,-3.5556,-3.5555,-3.554,-3.555,-3.5553,-3.5654,-3.5526,-3.553,-3.5533,-3.5535,-3.5872,-3.5877,0,0,0,0,0,0,-3.5653,-3.5648,-3.5708,-3.5707,-3.5624,-3.5607,-3.5602,-3.5624,-3.559,-3.5579,-3.556,-3.5548,-3.5545,-3.5547,-3.5551,-3.5718,-3.5531,-3.5535,-3.5538,-3.5865,-3.5873,-3.588,0,0,0,0,0,0,-3.5652,-3.566,-3.5709,-3.5674,-3.5678,-3.5615,-3.564,-3.5626,-3.5636,-3.5584,-3.5572,-3.5583,-3.5541,-3.5545,-3.5631,-3.5715,-3.5537,-3.5542,-3.5858,-3.5868,-3.5876,-3.6054,0,0,0,0,0,0,-3.565,-3.5661,-3.5714,-3.5677,-3.568,-3.5788,-3.5645,-3.563,-3.5644,-3.5628,-3.5602,-3.5592,-3.5536,-3.5624,-3.5635,-3.5719,-3.5545,-3.585,-3.5862,-3.5873,-3.604,-3.6068,-3.6092,0,0,0,0,0,-3.5648,-3.5767,-3.5718,-3.5726,-3.5746,-3.5794,-3.5796,-3.5727,-3.5651,-3.5705,-3.5671,-3.5593,-3.5704,-3.5635,-3.5645,-3.5732,-3.5845,-3.5859,-3.5872,-3.6028,-3.6062,-3.6091,0,0,0,0,0,0,-3.5818,-3.576,-3.5705,-3.5815,-3.581,-3.5767,-3.5833,-3.5765,-3.5783,-3.5768,-3.5683,-3.5679,-3.5778,-3.5762,-3.5687,-3.5869,-3.5761,-3.5778,-3.5876,-3.5908,-3.5933,-3.5936,-3.5549,0,0,0,0,0,-3.5868,-3.591,-3.5858,-3.596,-3.596,-3.5897,-3.5915,-3.5862,-3.5855,-3.5853,-3.5825,-3.5822,-3.5856,-3.588,-3.5909,-3.6036,-3.6029,-3.61,-3.6126,-3.6148,-3.6164,-3.623,-3.6262,-3.5925,-3.5925,-3.5925,0,0,-3.5973,-3.5946,-3.5979,-3.5993,-3.5983,-3.603,-3.5897,-3.5952,-3.5987,-3.5862,-3.5941,-3.592,-3.5911,-3.6019,-3.6064,-3.6009,-3.6255,-3.6165,-3.6183,-3.6187,-3.6248,-3.628,-3.6308,-3.5934,-3.5933,-3.5931,0,0,-3.6188,-3.6171,-3.6254,-3.6246,-3.6231,-3.6188,-3.6208,-3.6174,-3.6155,-3.6232,-3.6139,-3.618,-3.624,-3.6237,-3.6244,-3.6455,-3.6385,-3.6467,-3.6603,-3.6669,-3.6695,-3.6718,-3.6795,-3.6823,-3.6483,-3.6483,-3.6483,0,-3.6321,-3.6386,-3.6306,-3.6367,-3.6377,-3.6262,-3.6347,-3.6343,-3.634,-3.635,-3.6287,-3.6359,-3.6345,-3.645,-3.6501,-3.651,-3.6532,-3.6471,-3.6697,-3.672,-3.674,-3.6812,-3.6841,-3.6493,-3.6492,-3.6491,-3.649,0,-3.655,-3.6597,-3.6666,-3.6662,-3.6679,-3.6752,-3.6685,-3.6712,-3.6657,-3.6621,-3.6701,-3.668,-3.6702,-3.6722,-3.667,-3.682,-3.6786,-3.6712,-3.6602,-3.6784,-3.685,-3.6877,-3.6508,-3.6504,-3.6501,-3.6499,0,0,-3.6875,-3.6824,-3.6851,-3.6848,-3.6822,-3.6857,-3.6925,-3.6943,-3.6969,-3.697,-3.7025,-3.7077,-3.7007,-3.7015,-3.6962,-3.7019,-3.7189,-3.6937,-3.6936,-3.6986,-3.7354,-3.7412,-3.7445,-3.714,-3.7145,-3.7149,-3.7355,0,-3.7082,-3.7192,-3.7122,-3.7244,-3.7287,-3.7177,-3.7236,-3.7228,-3.7195,-3.7228,-3.7192,-3.7231,-3.7135,-3.7139,-3.7191,-3.7158,-3.7262,-3.7141,-3.7194,-3.7197,-3.7202,-3.7479,-3.7541,-3.7736,-3.7381,-3.7385,-3.7388,0,-3.7339,-3.7348,-3.7475,-3.7439,-3.7454,-3.7508,-3.7519,-3.7551,-3.7539,-3.7511,-3.7519,-3.745,-3.7515,-3.7404,-3.7494,-3.7413,-3.743,-3.7417,-3.7422,-3.7427,-3.7305,-3.7493,-3.7797,-3.7827,-3.7428,-3.7425,-3.7422,0,-3.7565,-3.7609,-3.769,-3.769,-3.765,-3.7691,-3.7677,-3.7658,-3.7674,-3.7684,-3.7693,-3.7712,-3.7723,-3.7739,-3.7678,-3.7603,-3.7776,-3.766,-3.7757,-3.7759,-3.7801,-3.7799,-3.8113,-3.7809,-3.7808,-3.7807,-3.7807,0,-3.7805,-3.7887,-3.779,-3.7841,-3.7929,-3.7847,-3.7938,-3.7912,-3.7896,-3.7941,-3.7847,-3.7891,-3.7806,-3.7842,-3.7795,-3.7877,-3.7882,-3.7863,-3.785,-3.7872,-3.7875,-3.7884,-3.787,-3.7815,-3.7813,-3.7812,-3.7811,0,-3.8074,-3.8012,-3.8093,-3.8047,-3.8038,-3.8106,-3.8067,-3.8113,-3.8072,-3.813,-3.8139,-3.8077,-3.8114,-3.8053,-3.8084,-3.8052,-3.8166,-3.8131,-3.817,-3.816,-3.8261,-3.8253,-3.8594,-3.8635,-3.8302,-3.8306,-3.8308,0,-3.8232,-3.8292,-3.8252,-3.8273,-3.8264,-3.83,-3.8314,-3.8235,-3.8255,-3.8244,-3.8292,-3.832,-3.8339,-3.8404,-3.8363,-3.8386,-3.8352,-3.847,-3.8355,-3.8376,-3.8356,-3.8354,-3.836,-3.8494,-3.8498,-3.8502,-3.8504,0,-3.852,-3.8486,-3.8509,-3.8522,-3.8541,-3.8547,-3.8548,-3.8571,-3.8487,-3.8514,-3.8549,-3.8564,-3.8593,-3.8624,-3.8636,-3.8623,-3.8552,-3.854,-3.8564,-3.8589,-3.861,-3.8601,-3.8236,-3.8533,-3.853,-3.8528,-3.8527,-3.8526,-3.8739,-3.8787,-3.8766,-3.8795,-3.8786,-3.8787,-3.8827,-3.8791,-3.8818,-3.8835,-3.8786,-3.8834,-3.8819,-3.8828,-3.8822,-3.8859,-3.8808,-3.8842,-3.8851,-3.8861,-3.8878,-3.8602,-3.8861,-3.886,-3.8859,-3.8858,-3.8858,0,-3.9024,-3.9004,-3.903,-3.9032,-3.9055,-3.8981,-3.8977,-3.9002,-3.9043,-3.9035,-3.9054,-3.9095,-3.9123,-3.9084,-3.9106,-3.9143,-3.9111,-3.9152,-3.9149,-3.9148,-3.8922,-3.89,-3.9177,-3.9177,-3.9177,-3.9177,-3.9177,-3.9177,-3.9175,-3.9252,-3.9215,-3.9287,-3.9266,-3.9309,-3.9314,-3.9315,-3.9308,-3.9357,-3.9379,-3.9351,-3.9331,-3.935,-3.9373,-3.9361,-3.9374,-3.9428,-3.9404,-3.9195,-3.9164,-3.9134,-3.9113,-3.9431,-3.9431,-3.9627,-3.9629,-3.963]},{"header":{"parameterUnit":"m.s-1","parameterCategory":1,"la1":30.2991,"la2":30.254,"lo1":-89.0895,"lo2":-89.0444,"dy":0.0017,"dx":0.0017,"nx":28,"ny":28,"refTime":"2025-02-24T03:00:00:Z","depth":0,"parameterNumber":3,"parameterNumberName":"V-component_of_WINDS"},"data":[0,0,0,0,0,0,0,0,0,0,0,0,0,0,0,0,0,0,0,0,0,0,0,0,0,0,0,0,0,0,0,0,0,0,0,0,0,0,0,0,0,0,0,0,0,0,0,0,0,0,0,0,0,0,0,0,0,0,-1.6661,-1.6662,0,-1.6684,-1.6684,-1.6684,-1.6701,-1.6702,-1.6702,-1.6702,-1.6724,-1.6724,-1.6725,0,0,0,0,0,0,0,0,0,0,0,0,0,-1.6631,-1.6632,-1.6661,-1.6662,-1.6662,-1.6684,-1.6684,-1.6684,-1.6701,-1.6702,-1.6702,-1.6702,-1.6724,-1.6724,-1.6725,0,0,0,0,0,0,0,0,0,0,0,0,0,-1.6648,-1.6632,-1.6661,-1.6673,-1.6674,-1.6684,-1.6684,-1.6684,-1.6701,-1.6702,-1.6702,-1.6702,-1.6724,-1.6724,-1.6725,-1.6724,0,0,-1.6727,-1.6727,0,0,0,0,0,0,0,0,-1.6647,-1.6649,-1.6671,-1.6672,-1.6674,-1.669,-1.6682,-1.6698,-1.6701,-1.6691,-1.6702,-1.6702,-1.6712,-1.6714,-1.6718,-1.6725,-1.6726,-1.6727,-1.6727,-1.6728,-1.6728,0,0,0,0,0,0,0,-1.6646,-1.6648,-1.667,-1.6671,-1.6673,-1.6677,-1.6679,-1.6685,-1.67,-1.6692,-1.6693,-1.6696,-1.6713,-1.6717,-1.6718,-1.6726,-1.6727,-1.6728,-1.6728,-1.6728,-1.6733,-1.6732,0,0,0,0,0,0,-1.6643,-1.6647,-1.667,-1.6671,-1.6661,-1.6677,-1.668,-1.6685,-1.67,-1.6703,-1.6696,-1.6697,-1.6716,-1.6718,-1.6719,-1.6718,-1.6728,-1.6728,-1.6729,-1.6733,-1.6732,-1.6732,0,0,0,0,0,0,-1.6643,-1.6645,-1.6669,-1.6659,-1.6663,-1.6677,-1.6682,-1.6685,-1.6689,-1.6703,-1.6706,-1.6697,-1.6716,-1.6718,-1.6722,-1.6719,-1.6729,-1.6729,-1.6733,-1.6733,-1.6732,-1.6717,0,0,0,0,0,0,-1.6642,-1.6645,-1.6645,-1.6659,-1.6663,-1.6672,-1.6682,-1.6685,-1.669,-1.6691,-1.6705,-1.6707,-1.6716,-1.6721,-1.6723,-1.6721,-1.673,-1.6733,-1.6733,-1.6732,-1.6718,-1.6716,-1.6715,0,0,0,0,0,-1.664,-1.664,-1.6645,-1.6648,-1.6664,-1.6672,-1.6674,-1.6685,-1.669,-1.669,-1.6698,-1.6707,-1.6719,-1.6722,-1.6724,-1.6721,-1.6734,-1.6733,-1.6732,-1.6719,-1.6717,-1.6715,0,0,0,0,0,0,-1.6626,-1.6642,-1.6648,-1.6653,-1.6661,-1.6675,-1.6676,-1.6683,-1.669,-1.6691,-1.6704,-1.6707,-1.6709,-1.6716,-1.6718,-1.672,-1.6727,-1.6727,-1.6716,-1.6714,-1.6713,-1.6711,-1.673,0,0,0,0,0,-1.6623,-1.6628,-1.6643,-1.6645,-1.6649,-1.6661,-1.6665,-1.6673,-1.6682,-1.6685,-1.6694,-1.6702,-1.6708,-1.6711,-1.6718,-1.6719,-1.6721,-1.6718,-1.6716,-1.6715,-1.6715,-1.6714,-1.6713,-1.673,-1.673,-1.673,0,0,-1.6617,-1.6627,-1.663,-1.6642,-1.665,-1.6654,-1.6664,-1.6669,-1.6672,-1.6686,-1.669,-1.6697,-1.6707,-1.6709,-1.671,-1.6714,-1.671,-1.6714,-1.6713,-1.6713,-1.6714,-1.6712,-1.671,-1.673,-1.673,-1.673,0,0,-1.661,-1.6618,-1.6621,-1.6627,-1.6638,-1.6646,-1.6646,-1.6659,-1.6664,-1.6668,-1.6678,-1.6682,-1.6692,-1.6698,-1.6702,-1.6694,-1.6701,-1.6695,-1.6687,-1.6687,-1.6686,-1.6684,-1.6681,-1.668,-1.6695,-1.6695,-1.6695,0,-1.6602,-1.661,-1.6621,-1.6625,-1.6629,-1.6641,-1.6643,-1.6649,-1.6661,-1.6663,-1.6667,-1.6679,-1.6686,-1.6689,-1.6687,-1.6691,-1.6691,-1.6694,-1.6685,-1.6684,-1.6683,-1.668,-1.6679,-1.6694,-1.6694,-1.6694,-1.6694,0,-1.6598,-1.6604,-1.6604,-1.6615,-1.6619,-1.6622,-1.6633,-1.6636,-1.6643,-1.665,-1.6653,-1.6662,-1.667,-1.6671,-1.6678,-1.6675,-1.6677,-1.6683,-1.669,-1.668,-1.6677,-1.6676,-1.6693,-1.6693,-1.6694,-1.6694,0,0,-1.6584,-1.6599,-1.6599,-1.6604,-1.6615,-1.6619,-1.6621,-1.6629,-1.6631,-1.6638,-1.664,-1.6647,-1.6652,-1.6657,-1.6664,-1.6663,-1.6655,-1.6669,-1.667,-1.6666,-1.6652,-1.6647,-1.6646,-1.666,-1.666,-1.666,-1.6651,0,-1.6578,-1.6584,-1.6593,-1.6596,-1.66,-1.661,-1.6612,-1.6618,-1.6625,-1.6628,-1.6635,-1.664,-1.6646,-1.6649,-1.6649,-1.6656,-1.6653,-1.6657,-1.6662,-1.6662,-1.6659,-1.6644,-1.664,-1.6631,-1.665,-1.665,-1.6649,0,-1.6572,-1.6578,-1.6581,-1.6591,-1.6593,-1.6594,-1.6601,-1.6604,-1.6612,-1.6616,-1.662,-1.6628,-1.663,-1.6636,-1.6639,-1.6642,-1.6644,-1.6647,-1.6647,-1.6648,-1.6655,-1.6645,-1.6629,-1.6627,-1.6648,-1.6648,-1.6648,0,-1.6561,-1.6569,-1.6572,-1.6575,-1.6587,-1.6587,-1.6592,-1.6599,-1.6603,-1.6608,-1.661,-1.6615,-1.6618,-1.6622,-1.663,-1.6634,-1.6631,-1.6638,-1.6634,-1.6634,-1.6634,-1.6634,-1.6618,-1.6635,-1.6635,-1.6635,-1.6635,0,-1.6553,-1.6555,-1.6567,-1.6568,-1.6569,-1.6579,-1.658,-1.6585,-1.6591,-1.6593,-1.6602,-1.6604,-1.6614,-1.6617,-1.6623,-1.6624,-1.6625,-1.6628,-1.663,-1.6628,-1.6627,-1.663,-1.663,-1.6635,-1.6635,-1.6635,-1.6635,0,-1.6541,-1.6549,-1.6553,-1.6562,-1.6565,-1.6565,-1.6573,-1.6574,-1.658,-1.6583,-1.6584,-1.6593,-1.6597,-1.6605,-1.6611,-1.6615,-1.6613,-1.6617,-1.6611,-1.6612,-1.6608,-1.6608,-1.6592,-1.6591,-1.6609,-1.6609,-1.6609,0,-1.6536,-1.6537,-1.6547,-1.6548,-1.6553,-1.6556,-1.6559,-1.6567,-1.657,-1.6577,-1.6577,-1.6581,-1.6585,-1.6589,-1.6596,-1.66,-1.6603,-1.6598,-1.6604,-1.6601,-1.6603,-1.6603,-1.6602,-1.6596,-1.6596,-1.6596,-1.6596,0,-1.6526,-1.6529,-1.6533,-1.6538,-1.6541,-1.6545,-1.655,-1.6551,-1.656,-1.6563,-1.6566,-1.6569,-1.6574,-1.6577,-1.6582,-1.6586,-1.6592,-1.6593,-1.6593,-1.659,-1.6587,-1.6588,-1.6607,-1.6594,-1.6594,-1.6594,-1.6594,-1.6594,-1.6517,-1.6518,-1.6524,-1.6528,-1.6532,-1.6535,-1.6537,-1.6542,-1.6545,-1.655,-1.6554,-1.6557,-1.6562,-1.6569,-1.6572,-1.6574,-1.6578,-1.6577,-1.6576,-1.6576,-1.6574,-1.6586,-1.6575,-1.6575,-1.6575,-1.6575,-1.6575,0,-1.6507,-1.6511,-1.6514,-1.652,-1.6522,-1.6527,-1.6532,-1.6533,-1.6535,-1.654,-1.6543,-1.6546,-1.6549,-1.6555,-1.6558,-1.6558,-1.6561,-1.6559,-1.6559,-1.656,-1.6572,-1.6572,-1.6556,-1.6556,-1.6556,-1.6556,-1.6556,-1.6556,-1.6502,-1.6503,-1.6507,-1.651,-1.6514,-1.6516,-1.6518,-1.6521,-1.6525,-1.6527,-1.653,-1.6534,-1.6538,-1.6542,-1.6544,-1.6546,-1.6547,-1.6543,-1.6546,-1.6557,-1.6559,-1.6561,-1.6561,-1.6543,-1.6543,-1.6534,-1.6534,-1.6534]}]]